Location: ???? ???
(30.5005°N, 60.5936°E)
Time: 13:28:17
(UTC+00:00)

Cosmos 1633 - Pass Details

Date: 07 June 2020
Orbit: 464 x 481 km, 82.5° (Epoch: 06 July)

Event Time Altitude Azimuth Distance (km) Brightness Sun altitude
Exits shadow 00:01:28 12° 203° (SSW) 1,538 4.6 -10.7°
Maximum altitude 00:04:41 48° 277° (W) 631 2.8 -10.1°
Drops below altitude 10° 00:08:11 10° 353° (N) 1,652 5.6 -9.5°
Sets 00:10:21 0° 359° (N) 2,537 6.7 -9.1°
